Orbital Elements at Epoch 2459000.5 (2020-May-31.0) TDB
Reference: JPL 12 (heliocentric ecliptic J2000)
Element | Value | Uncertainty (1-sigma) | Units |
e | .2187574706826977 | 5.9717e-08 | |
a | 2.219481634503666 | 1.0892e-08 | au |
q | 1.733953445912944 | 1.3403e-07 | au |
i | 3.93534190896884 | 4.982e-06 | deg |
node | 252.9146652684021 | 9.9408e-05 | deg |
peri | 74.71093076998541 | 0.00010015 | deg |
M | 68.68404990443705 | 1.4341e-05 | deg |
tp | 2458770.075234177530 (2019-Oct-13.57523418) | 4.7551e-05 | TDB |
period | 1207.746424555703 3.31 | 8.8904e-06 2.434e-08 | d yr |
n | .2980758151550184 | 2.1942e-09 | deg/d |
Q | 2.705009823094387 | 1.3275e-08 | au |
|
| | Orbit Determination Parameters
Additional Information
|